(°C)
11°
12°
13°
14°
(°C)
W
W
W
W
W
W
W
(km/u)
20-34
21-35
22-35
23-36
24-38
25-38
24-37
(mm)
0
0
0
0
0
0
0
(%)
8
8
1
1
1
0
0

Zonverhoging

/ 3.6°
sun-icon
UV 5
04:24
21:17
Afnemende maan (327°)
03:30
17:44

METAR voor 55.31°N 61.5°O (USCC)

Tijd Voorwaarden Temperatuur/
Dauwpunt
Wind Zicht Weer Wolken Luchtdruk Wijzigen Ruw
VFR 7°C / 6°C 290º 6kt >10km - Scattered Clouds 4000ft 1007 No Significant change. Runway 27: Wet or puddles, 51-100% contamination with <1mm, friction coefficient 0.50. USCC 262330Z 29003MPS 9999 SCT040CB 07/06 Q1007 R27/290050 NOSIG RMK QFE735
VFR 8°C / 8°C 310º 6kt >10km - Scattered Clouds 4000ft 1007 No Significant change. Runway 27: Wet or puddles, 51-100% contamination with <1mm, friction coefficient 0.50. USCC 262300Z 31003MPS 9999 SCT040CB 08/08 Q1007 R27/290050 NOSIG RMK QFE735
VFR 8°C / 8°C 300º 6kt >10km - Scattered Clouds 4000ft 1007 No Significant change. Runway 27: Wet or puddles, 51-100% contamination with <1mm, friction coefficient 0.50. USCC 262230Z 30003MPS 9999 SCT040CB 08/08 Q1007 R27/290050 NOSIG RMK QFE735
VFR 8°C / 8°C 310º 10kt >10km - Scattered Clouds 4000ft 1007 No Significant change. Runway 27: Wet or puddles, 51-100% contamination with <1mm, friction coefficient 0.50. USCC 262200Z 31005MPS 9999 SCT040CB 08/08 Q1007 R27/290050 NOSIG RMK QFE735
VFR 9°C / 9°C 330º 10kt >10km - Scattered Clouds 4000ft 1007 No Significant change. Runway 27: Wet or puddles, 51-100% contamination with <1mm, friction coefficient 0.50. USCC 262130Z 33005MPS 9999 SCT040CB 09/09 Q1007 R27/290050 NOSIG RMK QFE735
VFR 9°C / 9°C 330º 8kt >10km - Broken Clouds 4000ft 1007 No Significant change. Runway 27: Wet or puddles, 51-100% contamination with <1mm, friction coefficient 0.50. USCC 262100Z 33004MPS 9999 BKN040CB 09/09 Q1007 R27/290050 NOSIG RMK QFE735
VFR 9°C / 9°C 330º 8kt >10km - Broken Clouds 4000ft 1007 No Significant change. Runway 27: Wet or puddles, 51-100% contamination with <1mm, friction coefficient 0.50. USCC 262030Z 33004MPS 9999 BKN040CB 09/09 Q1007 R27/290050 NOSIG RMK QFE736
VFR 9°C / 9°C 330º 8kt >10km - Broken Clouds 4000ft 1007 No Significant change. Runway 27: Wet or puddles, 51-100% contamination with <1mm, friction coefficient 0.50. USCC 262000Z 33004MPS 9999 BKN040CB 09/09 Q1007 R27/290050 NOSIG RMK QFE735
VFR 9°C / 9°C 330º 10kt >10km - Broken Clouds 4000ft 1007 No Significant change. Runway 27: Wet or puddles, 51-100% contamination with <1mm, friction coefficient 0.50. USCC 261930Z 33005MPS 9999 BKN040CB 09/09 Q1007 R27/290050 NOSIG RMK QFE736
VFR 9°C / 9°C 340º 10kt >10km - Broken Clouds 4000ft 1007 No Significant change. Runway 27: Wet or puddles, 51-100% contamination with <1mm, friction coefficient 0.50. USCC 261900Z 34005MPS 9999 BKN040CB 09/09 Q1007 R27/290050 NOSIG RMK QFE735
VFR 10°C / 9°C 360º 8kt >10km - Broken Clouds 4000ft 1007 No Significant change. Runway 27: Wet or puddles, 51-100% contamination with <1mm, friction coefficient 0.50. USCC 261830Z 36004MPS 9999 BKN040CB 10/09 Q1007 R27/290050 NOSIG RMK QFE735
VFR 10°C / 8°C 350º 14kt >10km - Broken Clouds 4000ft 1007 No Significant change. Runway 27: Wet or puddles, 51-100% contamination with <1mm, friction coefficient 0.50. USCC 261800Z 35007MPS 9999 BKN040CB 10/08 Q1007 R27/290050 NOSIG RMK QFE735
VFR 10°C / 9°C 340º 14kt >10km Light Showers Rain 3.00mm precipitation Vertical Visibility of 0ft. 1007 Temporary: Light Thunderstorm Rain . RMK QFE735 . Runway 27: Wet or puddles, 51-100% contamination with <1mm, friction coefficient 0.50. USCC 261730Z 34007MPS 9999 -SHRA BKN040CB 10/09 Q1007 R27/290050 TEMPO -TSRA RMK QFE735
VFR 10°C / 9°C 350º 10kt >10km Light Showers Rain 3.00mm precipitation Vertical Visibility of 0ft. 1008 Temporary: Light Thunderstorm Rain . RMK QFE736 . Runway 27: Wet or puddles, 51-100% contamination with <1mm, friction coefficient 0.50. USCC 261700Z 35005MPS 9999 -SHRA BKN040CB 10/09 Q1008 R27/290050 TEMPO -TSRA RMK QFE736
VFR 11°C / 9°C 10º 6kt >10km Light Showers Rain 3.00mm precipitation Vertical Visibility of 0ft. 1008 Temporary: Light Thunderstorm Rain . RMK QFE736 USCC 261630Z 01003MPS 9999 -SHRA BKN040CB 11/09 Q1008 R27/000060 TEMPO -TSRA RMK QFE736
VFR 12°C / 7°C 20º 6kt >10km Light Showers Rain 3.00mm precipitation Vertical Visibility of 0ft. 1009 Temporary: Light Thunderstorm Rain . RMK QFE737 USCC 261600Z 02003MPS 9999 -SHRA BKN040CB 12/07 Q1009 R27/000060 TEMPO -TSRA RMK QFE737
VFR 13°C / 8°C 20º 8kt >10km - Broken Clouds 4000ft 1009 Temporary: Light Thunderstorm Rain . RMK QFE736 USCC 261530Z 02004MPS 9999 BKN040CB 13/08 Q1009 R27/000060 TEMPO -TSRA RMK QFE736
VFR 14°C / 5°C 350º 4kt >10km - Broken Clouds 4000ft 1009 Temporary: Light Thunderstorm Rain . RMK QFE737 USCC 261500Z 35002MPS 9999 BKN040CB 14/05 Q1009 R27/000060 TEMPO -TSRA RMK QFE737
VFR 14°C / 5°C 340º 8kt >10km - Broken Clouds 4000ft 1008 Temporary: Light Thunderstorm Rain . RMK QFE736 USCC 261430Z 34004MPS 9999 BKN040CB 14/05 Q1008 R27/000060 TEMPO -TSRA RMK QFE736
VFR 15°C / 5°C 330º 10kt >10km - Broken Clouds 4000ft 1008 Temporary: Light Thunderstorm Rain . RMK QFE736 USCC 261400Z 33005MPS 9999 BKN040CB 15/05 Q1008 R27/000060 TEMPO -TSRA RMK QFE736
VFR 15°C / 5°C 330º 10kt >10km - Scattered Clouds 4000ft 1008 Temporary: Light Thunderstorm Rain . RMK QFE736 USCC 261330Z 33005MPS 9999 SCT040CB 15/05 Q1008 R27/000060 TEMPO -TSRA RMK QFE736
VFR 15°C / 6°C 320º 12kt >10km - Scattered Clouds 4000ft 1007 Temporary: Light Thunderstorm Rain . RMK QFE736 . Runway 27: Wet or puddles, 51-100% contamination with <1mm, friction coefficient 0.45. USCC 261300Z 32006MPS 9999 SCT040CB 15/06 Q1007 R27/290045 TEMPO -TSRA RMK QFE736
VFR 14°C / 6°C 310º 10kt >10km - Scattered Clouds 3000ft 1008 No Significant change. Runway 27: Wet or puddles, 51-100% contamination with <1mm, friction coefficient 0.45. USCC 261230Z 31005MPS 9999 SCT030CB 14/06 Q1008 R27/290045 NOSIG RMK QFE736
VFR 14°C / 8°C 310º 10kt >10km - Scattered Clouds 3000ft 1009 No Significant change. Runway 27: Wet or puddles, 51-100% contamination with <1mm, friction coefficient 0.45. USCC 261200Z 31005MPS 9999 SCT030CB 14/08 Q1009 R27/290045 NOSIG RMK QFE737

VFR

7°C / 6°C

[Meer]
Wind 290º 6kt
Zicht >10km
Weer -
Wolken Scattered Clouds 4000ft
Luchtdruk 1007
Wijzigen No Significant change. Runway 27: Wet or puddles, 51-100% contamination with <1mm, friction coefficient 0.50.
Ruw USCC 262330Z 29003MPS 9999 SCT040CB 07/06 Q1007 R27/290050 NOSIG RMK QFE735

VFR

8°C / 8°C

[Meer]
Wind 310º 6kt
Zicht >10km
Weer -
Wolken Scattered Clouds 4000ft
Luchtdruk 1007
Wijzigen No Significant change. Runway 27: Wet or puddles, 51-100% contamination with <1mm, friction coefficient 0.50.
Ruw USCC 262300Z 31003MPS 9999 SCT040CB 08/08 Q1007 R27/290050 NOSIG RMK QFE735

VFR

8°C / 8°C

[Meer]
Wind 300º 6kt
Zicht >10km
Weer -
Wolken Scattered Clouds 4000ft
Luchtdruk 1007
Wijzigen No Significant change. Runway 27: Wet or puddles, 51-100% contamination with <1mm, friction coefficient 0.50.
Ruw USCC 262230Z 30003MPS 9999 SCT040CB 08/08 Q1007 R27/290050 NOSIG RMK QFE735

VFR

8°C / 8°C

[Meer]
Wind 310º 10kt
Zicht >10km
Weer -
Wolken Scattered Clouds 4000ft
Luchtdruk 1007
Wijzigen No Significant change. Runway 27: Wet or puddles, 51-100% contamination with <1mm, friction coefficient 0.50.
Ruw USCC 262200Z 31005MPS 9999 SCT040CB 08/08 Q1007 R27/290050 NOSIG RMK QFE735

VFR

9°C / 9°C

[Meer]
Wind 330º 10kt
Zicht >10km
Weer -
Wolken Scattered Clouds 4000ft
Luchtdruk 1007
Wijzigen No Significant change. Runway 27: Wet or puddles, 51-100% contamination with <1mm, friction coefficient 0.50.
Ruw USCC 262130Z 33005MPS 9999 SCT040CB 09/09 Q1007 R27/290050 NOSIG RMK QFE735

VFR

9°C / 9°C

[Meer]
Wind 330º 8kt
Zicht >10km
Weer -
Wolken Broken Clouds 4000ft
Luchtdruk 1007
Wijzigen No Significant change. Runway 27: Wet or puddles, 51-100% contamination with <1mm, friction coefficient 0.50.
Ruw USCC 262100Z 33004MPS 9999 BKN040CB 09/09 Q1007 R27/290050 NOSIG RMK QFE735

VFR

9°C / 9°C

[Meer]
Wind 330º 8kt
Zicht >10km
Weer -
Wolken Broken Clouds 4000ft
Luchtdruk 1007
Wijzigen No Significant change. Runway 27: Wet or puddles, 51-100% contamination with <1mm, friction coefficient 0.50.
Ruw USCC 262030Z 33004MPS 9999 BKN040CB 09/09 Q1007 R27/290050 NOSIG RMK QFE736

VFR

9°C / 9°C

[Meer]
Wind 330º 8kt
Zicht >10km
Weer -
Wolken Broken Clouds 4000ft
Luchtdruk 1007
Wijzigen No Significant change. Runway 27: Wet or puddles, 51-100% contamination with <1mm, friction coefficient 0.50.
Ruw USCC 262000Z 33004MPS 9999 BKN040CB 09/09 Q1007 R27/290050 NOSIG RMK QFE735

VFR

9°C / 9°C

[Meer]
Wind 330º 10kt
Zicht >10km
Weer -
Wolken Broken Clouds 4000ft
Luchtdruk 1007
Wijzigen No Significant change. Runway 27: Wet or puddles, 51-100% contamination with <1mm, friction coefficient 0.50.
Ruw USCC 261930Z 33005MPS 9999 BKN040CB 09/09 Q1007 R27/290050 NOSIG RMK QFE736

VFR

9°C / 9°C

[Meer]
Wind 340º 10kt
Zicht >10km
Weer -
Wolken Broken Clouds 4000ft
Luchtdruk 1007
Wijzigen No Significant change. Runway 27: Wet or puddles, 51-100% contamination with <1mm, friction coefficient 0.50.
Ruw USCC 261900Z 34005MPS 9999 BKN040CB 09/09 Q1007 R27/290050 NOSIG RMK QFE735

VFR

10°C / 9°C

[Meer]
Wind 360º 8kt
Zicht >10km
Weer -
Wolken Broken Clouds 4000ft
Luchtdruk 1007
Wijzigen No Significant change. Runway 27: Wet or puddles, 51-100% contamination with <1mm, friction coefficient 0.50.
Ruw USCC 261830Z 36004MPS 9999 BKN040CB 10/09 Q1007 R27/290050 NOSIG RMK QFE735

VFR

10°C / 8°C

[Meer]
Wind 350º 14kt
Zicht >10km
Weer -
Wolken Broken Clouds 4000ft
Luchtdruk 1007
Wijzigen No Significant change. Runway 27: Wet or puddles, 51-100% contamination with <1mm, friction coefficient 0.50.
Ruw USCC 261800Z 35007MPS 9999 BKN040CB 10/08 Q1007 R27/290050 NOSIG RMK QFE735

VFR

10°C / 9°C

[Meer]
Wind 340º 14kt
Zicht >10km
Weer Light Showers Rain 3.00mm precipitation
Wolken Vertical Visibility of 0ft.
Luchtdruk 1007
Wijzigen Temporary: Light Thunderstorm Rain . RMK QFE735 . Runway 27: Wet or puddles, 51-100% contamination with <1mm, friction coefficient 0.50.
Ruw USCC 261730Z 34007MPS 9999 -SHRA BKN040CB 10/09 Q1007 R27/290050 TEMPO -TSRA RMK QFE735

VFR

10°C / 9°C

[Meer]
Wind 350º 10kt
Zicht >10km
Weer Light Showers Rain 3.00mm precipitation
Wolken Vertical Visibility of 0ft.
Luchtdruk 1008
Wijzigen Temporary: Light Thunderstorm Rain . RMK QFE736 . Runway 27: Wet or puddles, 51-100% contamination with <1mm, friction coefficient 0.50.
Ruw USCC 261700Z 35005MPS 9999 -SHRA BKN040CB 10/09 Q1008 R27/290050 TEMPO -TSRA RMK QFE736

VFR

11°C / 9°C

[Meer]
Wind 10º 6kt
Zicht >10km
Weer Light Showers Rain 3.00mm precipitation
Wolken Vertical Visibility of 0ft.
Luchtdruk 1008
Wijzigen Temporary: Light Thunderstorm Rain . RMK QFE736
Ruw USCC 261630Z 01003MPS 9999 -SHRA BKN040CB 11/09 Q1008 R27/000060 TEMPO -TSRA RMK QFE736

VFR

12°C / 7°C

[Meer]
Wind 20º 6kt
Zicht >10km
Weer Light Showers Rain 3.00mm precipitation
Wolken Vertical Visibility of 0ft.
Luchtdruk 1009
Wijzigen Temporary: Light Thunderstorm Rain . RMK QFE737
Ruw USCC 261600Z 02003MPS 9999 -SHRA BKN040CB 12/07 Q1009 R27/000060 TEMPO -TSRA RMK QFE737

VFR

13°C / 8°C

[Meer]
Wind 20º 8kt
Zicht >10km
Weer -
Wolken Broken Clouds 4000ft
Luchtdruk 1009
Wijzigen Temporary: Light Thunderstorm Rain . RMK QFE736
Ruw USCC 261530Z 02004MPS 9999 BKN040CB 13/08 Q1009 R27/000060 TEMPO -TSRA RMK QFE736

VFR

14°C / 5°C

[Meer]
Wind 350º 4kt
Zicht >10km
Weer -
Wolken Broken Clouds 4000ft
Luchtdruk 1009
Wijzigen Temporary: Light Thunderstorm Rain . RMK QFE737
Ruw USCC 261500Z 35002MPS 9999 BKN040CB 14/05 Q1009 R27/000060 TEMPO -TSRA RMK QFE737

VFR

14°C / 5°C

[Meer]
Wind 340º 8kt
Zicht >10km
Weer -
Wolken Broken Clouds 4000ft
Luchtdruk 1008
Wijzigen Temporary: Light Thunderstorm Rain . RMK QFE736
Ruw USCC 261430Z 34004MPS 9999 BKN040CB 14/05 Q1008 R27/000060 TEMPO -TSRA RMK QFE736

VFR

15°C / 5°C

[Meer]
Wind 330º 10kt
Zicht >10km
Weer -
Wolken Broken Clouds 4000ft
Luchtdruk 1008
Wijzigen Temporary: Light Thunderstorm Rain . RMK QFE736
Ruw USCC 261400Z 33005MPS 9999 BKN040CB 15/05 Q1008 R27/000060 TEMPO -TSRA RMK QFE736

VFR

15°C / 5°C

[Meer]
Wind 330º 10kt
Zicht >10km
Weer -
Wolken Scattered Clouds 4000ft
Luchtdruk 1008
Wijzigen Temporary: Light Thunderstorm Rain . RMK QFE736
Ruw USCC 261330Z 33005MPS 9999 SCT040CB 15/05 Q1008 R27/000060 TEMPO -TSRA RMK QFE736

VFR

15°C / 6°C

[Meer]
Wind 320º 12kt
Zicht >10km
Weer -
Wolken Scattered Clouds 4000ft
Luchtdruk 1007
Wijzigen Temporary: Light Thunderstorm Rain . RMK QFE736 . Runway 27: Wet or puddles, 51-100% contamination with <1mm, friction coefficient 0.45.
Ruw USCC 261300Z 32006MPS 9999 SCT040CB 15/06 Q1007 R27/290045 TEMPO -TSRA RMK QFE736

VFR

14°C / 6°C

[Meer]
Wind 310º 10kt
Zicht >10km
Weer -
Wolken Scattered Clouds 3000ft
Luchtdruk 1008
Wijzigen No Significant change. Runway 27: Wet or puddles, 51-100% contamination with <1mm, friction coefficient 0.45.
Ruw USCC 261230Z 31005MPS 9999 SCT030CB 14/06 Q1008 R27/290045 NOSIG RMK QFE736

VFR

14°C / 8°C

[Meer]
Wind 310º 10kt
Zicht >10km
Weer -
Wolken Scattered Clouds 3000ft
Luchtdruk 1009
Wijzigen No Significant change. Runway 27: Wet or puddles, 51-100% contamination with <1mm, friction coefficient 0.45.
Ruw USCC 261200Z 31005MPS 9999 SCT030CB 14/08 Q1009 R27/290045 NOSIG RMK QFE737

TAF voor 55.31°N 61.5°O (USCC)

From till


From till Wind 300º 6kt. Gust 19kt. Visibility 10km or more. Broken Clouds 3000ft.
Temporarly from till Light Showers Rain . Overcast 1600ft. Broken Clouds 3000ft.
From till Wind 270º 6kt. Gust 23kt. Visibility 10km or more. Scattered Clouds 4000ft.
Temporarly from till Wind 220º 6kt. Gust 16kt.

Ruw: TAF USCC 262300Z 2700/2724 30003G10MPS 9999 BKN030CB TEMPO 2700/2703 -SHRA OVC016 BKN030CB FM270300 27003G12MPS 9999 SCT040 TEMPO 2715/2724 22003G08MPS

Radar en neerslag nowcast voor 55.31°N 61.5°O

Motregen
Licht
Matig
Zwaar
Zeer zwaar
Hagel

De locatiemarkering is op 55.31°N 61.5°O geplaatst . Deze animation toont de neerslag radar van het afgelopen uur, maar ook de 1h verwachting. Motregen of lichte sneeuwval kan onzichtbaar zijn voor de radar. De neerslagintensiteit wordt met kleuren weergegeven, van lichtblauw tot oranje.

Huidige satelliet- en regenbeelden voor 55.31°N 61.5°O

De locatiemarkering is op 55.31°N 61.5°O geplaatst. [Meer]

Het realtime satellietbeeld combineert zichtbaar licht overdag met infraroodstraling 's nachts. 's Nachts is het beeld niet donker, omdat infraroodstraling temperatuurverschillen kan waarnemen. Helaas zijn lage wolken en mist moeilijk te onderscheiden van grondtemperaturen en kunnen dus 's nachts bijna onzichtbaar zijn. Meteosat-satellietbeelden voor Europa worden elke 5 minuten in real time bijgewerkt. De beelden van GOES-16/GOES-17 (Noord- en Zuid-Amerika) en Himawari (Azië) worden om de 10 minuten bijgewerkt.

Copyright 2022 EUMETSAT / meteoblue. / Copyright 2022 meteoblue

Terug naar boven